Regional Weather Roundup
Issued by NWS

Home | Current Version | Previous Version | Graphics & Text | Print | Product List | Glossary On
Versions: 1 2 3 4 5 6 7 8 9 10 11 12 13 14 15 16 17 18 19 20 21 22 23 24 25 26 27 28 29 30 31 32 33 34 35 36 37 38 39 40 41 42 43 44 45 46 47 48 49 50
010
ASUS43 KDTX 210310
RWRMI
MICHIGAN HOURLY REGIONAL WEATHER ROUNDUP
NATIONAL WEATHER SERVICE DETROIT/PONTIAC MI
1100 PM EDT SUN AUG 20 2017

NOTE: "FAIR" INDICATES FEW OR NO CLOUDS BELOW 12,000 FEET WITH NO
SIGNIFICANT WEATHER AND/OR OBSTRUCTION TO VISIBILITY.

MIZ047>049-052>055-059>063-066>070-074>076-081>083-210400-
SOUTHEAST LOWER MICHIGAN

CITY           SKY/WX    TMP DP  RH WIND       PRES   REMARKS
ADRIAN         CLOUDY    73  67  81 S3        30.09S
ALMA           CLEAR     64  60  89 CALM      30.07S
ANN ARBOR      CLOUDY    72  66  81 CALM      30.08F
BAD AXE        PTCLDY    66  62  87 CALM      30.08S
CARO           PTCLDY    62  60  94 CALM      30.07S
DETROIT CITY   CLOUDY    74  64  71 SE6       30.08S
DETROIT        CLOUDY    74  68  81 SE5       30.09F
FLINT          CLOUDY    71  63  75 S6        30.07F
GROSSE ILE     CLOUDY    73  69  86 CALM      30.08S
HILLSDALE      CLOUDY    70  64  83 CALM      30.10S
HOWELL         CLOUDY    73  64  72 S3        30.08F

CITY           SKY/WX    TMP DP  RH WIND       PRES   REMARKS
JACKSON        PTCLDY    75  65  70 S3        30.09R
LAMBERTVILLE   CLOUDY    72  69  90 CALM      30.08S
LANSING        MOCLDY    70  62  76 CALM      30.08S
LAPEER         FAIR      66  64  93 CALM      30.09R
MASON          CLOUDY    72  63  72 S3        30.08S
MONROE         CLOUDY    72  69  90 CALM      30.07F
MT. CLEMENS    CLOUDY    71  69  95 S7        30.07R
PONTIAC        MOCLDY    74  64  71 S3        30.08S
PORT HOPE        N/A     71  60  68 S3        30.04F
PORT HURON     PTCLDY    64  63  94 CALM      30.09S
TRI CITIES     CLEAR     71  63  75 S9        30.06S
MIDLAND        FAIR      65  63  93 CALM      30.05R
TROY           CLOUDY    76  60  58 CALM      30.10F
SAGINAW HB     PTCLDY    64  61  88 CALM      30.05F
$$
MIZ043>046-050>051-056>058-064>065-071>073-077>080-210400-
SOUTHWEST LOWER MICHIGAN

CITY           SKY/WX    TMP DP  RH WIND       PRES   REMARKS
BATTLE CREEK   MOCLDY    72  64  76 S3        30.08S
BENTON HARBOR  CLOUDY    76  66  71 SE3       30.05S
BIG RAPIDS     PTCLDY    64  61  90 CALM      30.06S
COLDWATER      MOCLDY    70  67  90 E3        30.09R
FREMONT        FAIR      67  65  93 CALM      30.05S
HOLLAND        CLOUDY    71  66  84 CALM      30.06R
GRAND RAPIDS   CLOUDY    72  67  84 SE3       30.06S
IONIA          FAIR      68  63  83 CALM      30.06S
KALAMAZOO      PTCLDY    73  63  70 S5        30.08R
LUDINGTON      CLEAR     72  62  70 CALM      30.03S
MARSHALL       PTCLDY    69  67  94 CALM      30.08R
MOUNT PLEASANT CLEAR     68  65  90 CALM      30.05S
MUSKEGON       MOCLDY    74  63  68 CALM      30.05R
SOUTH HAVEN    CLOUDY    75  67  76 CALM      30.05S
$$
MIZ016>042-210400-
NORTHERN LOWER MICHIGAN

CITY           SKY/WX    TMP DP  RH WIND       PRES   REMARKS
ALPENA         MOCLDY    69  64  84 S5        30.02S
BEAVER ISLAND  CLEAR     71  63  74 SW13G21   29.98S
BELLAIRE       CLEAR     71  62  73 CALM      30.01S
CADILLAC       MOCLDY    70  62  75 S5        30.06S
CHARLEVOIX     CLEAR     72  63  71 S8        30.02S
FRANKFORT      CLEAR     75  63  66 S7        30.01S
GAYLORD        PTCLDY    69  59  70 SW10      30.04R
GRAYLING       PTCLDY    71  59  66 SW5       30.05S
HARBOR SPRINGS CLEAR     72  62  71 W3        29.99S
HOUGHTON LAKE  PTCLDY    71  62  73 SW7       30.07R
MANISTEE       MOCLDY    70  63  78 CALM      30.02F
OSCODA         CLOUDY    69  61  74 SW5       30.04R
PELLSTON       CLEAR     72  62  71 CALM      29.99S
ROGERS CITY    MOCLDY    71  62  71 SW3       30.01S
TRAVERSE CITY  CLEAR     74  61  63 VRB5      30.00R
$$
MIZ007>008-015-210400-
EASTERN UPPER MICHIGAN

CITY           SKY/WX    TMP DP  RH WIND       PRES   REMARKS
KINROSS        CLOUDY    69  63  81 VRB5      29.98F
MACKINAC ISLAN CLEAR     71  62  74 SW8       29.98S
NEWBERRY       PTCLDY    66  65  97 S9        29.96S
S. S. MARIE    MOCLDY    70  62  76 S5        29.97S
MUNISING         N/A     71  68  90 S3        29.95R
$$
MIZ004>006-011>014-085-210400-
CENTRAL UPPER MICHIGAN

CITY           SKY/WX    TMP DP  RH WIND       PRES   REMARKS
MANISTIQUE     CLEAR     67  62  81 S8        29.96S
ESCANABA       CLOUDY    72  68  87 SW7       29.95R
MENOMINEE      PTCLDY    73  68  84 SW8       29.98R
SAWYER-GWINN   CLOUDY    73  65  76 NW7       29.98R
$$
MIZ001>003-009>011-084-210400-
WESTERN UPPER MICHIGAN

CITY           SKY/WX    TMP DP  RH WIND       PRES   REMARKS
IRON MOUNTAIN  CLOUDY    74  65  73 W5        29.97R
HOUGHTON       CLEAR     67  59  75 W12       29.95R
COPPER HARBOR    N/A     72  58  61 VRB7      29.91R
IRONWOOD       MOCLDY    67  62  84 W3        30.01R
$$

ABBREVIATIONS USED IN REMARKS
   TC - TEMPERATURE IN CELSIUS
  WCI - WIND CHILL INDEX
   HX - HEAT INDEX
  VSB - VISIBILITY





USA.gov is the U.S. government's official web portal to all federal, state and local government web resources and services.